Showing default

IRIDIUM 132, 42961

Orbit data source: Space-Track

IRIDIUM 132, 42961 is a payload satellite owned by Iridium (US) in LEO that was launched on Mon, 09 Oct 2017 UTC via an FALCON 9 launch vehicle from the Air Force Western Test Range (AFWTR). Payload-class satellites include a variety of spacecraft equipped with specific instruments for various scientific and technological missions. These include communications satellites like Starlink; space stations such as the ISS; scientific satellites like the Hubble; Earth observation satellites from companies like Planet Labs, Umbra, and HawkEye 360; GPS; miniature CubeSats for education and research; and military/defense satellites.

Loading next visibility...
Identifier
42961, 2017-061G
Orbit
LEO
Country
Flag of USUS
Related business
Manufacturer
OATK SSG Gilbert
Mission
Operational Commercial Communications
Bus & Motor
ELITEBUS, Unknown motor
Mass
860 kg wet, 700 kg dry
Launch date (UTC)
2017-10-09 (8 years ago)
Launch vehicle
FALCON 9
Launch site
Air Force Western Test Range (AFWTR)
Object type
Payload
Rocket body
Debris
Shape & HBR
Trap Box + 2 Pan, 4.8 m
Radar Cross Section
10.154 m², Large (>1 m²)

Expand to show TLE details & history
Last TLE update: 6 hours ago

TLE from 6 hours ago
0 IRIDIUM 132
1 42961U 17061G   25291.96229916  .00000012  00000-0 -27977-5 0  9991
2 42961  86.3946 126.1194 0001996  83.6766 276.4657 14.34217988420241
Epoch: 2025-10-18T23:05Z
TLE epoch observation values (Epoch: 2025-10-18T23:05:42.647Z)
Latitude
-0.00003°
Longitude
112.00591°
Altitude
780.557 km
Speed
7.464 km/s
True Right ascension
08h 24m 28s
True Declination
0° 00' 00"
Sunlit
Object was in daylight at epoch
Visualization orbit readout
Latitude
Unknown
Longitude
Unknown
Altitude
Unknown
Speed
Unknown
Apparent Right ascension
Unknown
Apparent Declination
Unknown
Sunlit
N/A
Visualization observer readout
Local Sidereal Time
00:23:09
Azimuth
Unknown
Elevation
Unknown
Doppler factor
Unknown
Orbital elements
Apogee altitude
776.059 km
Perigee altitude
773.203 km
Semi-major axis
7,152.768 km
Eccentricity
0.0002
Inclination
86.3946°
RAAN
126.1194°
Arg. of periapsis
83.6766°
True anomaly
276.44297°
Mean anomaly
276.4657°
Eccentric anomaly
276.45434°
Mean motion
3.58783 °/min
Orbital period
100.34 mins
BSTAR
-0.0000027977
Loading maneuver chart data...
Computing Atmospheric mass density...
Loading historical data...
Loading historical data...
Loading historical data...
Loading historical data...
Loading historical data...
Loading historical data...
Loading historical data...

Documentation

Showing up to 5 results
|